STARLINK-1371, 45542

Orbit data source: Space-Track

STARLINK-1371, 45542 is a payload satellite owned by SpaceX/Seattle (US) in LEO that was launched on Wed, 22 Apr 2020 UTC via an FALCON 9 launch vehicle from the Air Force Eastern Test Range (AFETR). Payload-class satellites include a variety of spacecraft equipped with specific instruments for various scientific and technological missions. These include communications satellites like Starlink; space stations such as the ISS; scientific satellites like the Hubble; Earth observation satellites from companies like Planet Labs, Umbra, and HawkEye 360; GPS; miniature CubeSats for education and research; and military/defense satellites.

Loading next visibility...
Identifier
45542, 2020-025M
Orbit
LEO
Last TLE update
1 day ago
Origin
Manufacturer
SpaceX/Seattle
Mission
Operational Commercial Communications
Bus & Motor
STARLINK, Unknown motor
Mass
260 kg wet, ~248 kg dry
Launch date (UTC)
2020-04-22 (5 years ago)
Launch vehicle
FALCON 9
Launch site
Air Force Eastern Test Range (AFETR)
Object type
Payload
Rocket body
Debris
Shape & HBR
Box + 1 Pan, 8.86 m
Radar Cross Section
13.562 m², Large (>1 m²)

Expand to show TLE details & history

TLE from 1 day ago
0 STARLINK-1371
1 45542U 20025M   25182.18750841  .00001592  00000-0  12567-3 0  9992
2 45542  53.0542 155.6588 0000761  78.7049 281.4025 15.06412417287187
Epoch: 2025-07-01T04:30Z
TLE epoch observation values (Epoch: 2025-07-01T04:30:00.726Z)
Latitude
-0.00007°
Longitude
168.66917°
Altitude
547.948 km
Speed
7.589 km/s
True Right ascension
10h 22m 38s
True Declination
0° 00' 00"
Sunlit
Object was in daylight at epoch
Visualization orbit readout
Latitude
6.50059°
Longitude
168.78464°
Altitude
547.283 km
Speed
7.59 km/s
Apparent Right ascension
08h 29m 43s
Apparent Declination
-18° 43' 54"
Sunlit
Object is in daylight
Visualization observer readout
Local Sidereal Time
17:42:26
Azimuth
288.11° WNW
Elevation
-48.361°
Doppler factor
1
Orbital elements
Apogee altitude
547.971 km
Perigee altitude
546.917 km
Semi-major axis
6,925.581 km
Eccentricity
0.00008
Inclination
53.0542°
RAAN
155.6588°
Arg. of periapsis
78.7049°
True anomaly
Unknown
Mean anomaly
281.4025°
Eccentric anomaly
Unknown
Mean motion
3.76581 °/min
Orbital period
95.6 mins
BSTAR
0.00012567
Loading maneuver chart data...
Loading SW <> Apogee altitude chart data...

STARLINK-1371 Visibility forecast

Observer location: undefined°, undefined°

Span
Click to sort rows by Start time (UTC) header in descending order
Start Az.
Max El. time (UTC)
Max El. Az.
Max El.
End time (UTC)
End Az.
6 mins2025-07-02 06:25:46.362Z330.039° NNW2025-07-02 06:28:46.362Z22.368° NNE24.449°2025-07-02 06:31:46.362Z80.052° E
6 mins2025-07-02 08:05:46.362Z297.966° NW2025-07-02 08:08:46.362Z216.437° SW39.514°2025-07-02 08:11:46.362Z149.522° SSE
5 mins2025-07-02 23:39:46.362Z169.464° S2025-07-02 23:41:46.362Z123.797° SE24.323°2025-07-02 23:44:46.362Z73.795° E
6 mins2025-07-03 01:18:46.362Z266.941° W2025-07-03 01:20:46.362Z321.431° NNW34.601°2025-07-03 01:24:46.362Z39.891° NE
|